When you browse on this site, cookies collect data to enhance your experience and personalize the content and advertising you see.
Visit our Privacy Policy to learn more. By continuing to use the site, you agree to this use of cookies and data.
  • In Netherlands
  • List of Countries
  • For 7 days
  • Water Temperature
  • Weather Map
  • Weather Widgets
  • user-avatar
    Login

    Hourly Weather Mirzita

    Today, 20 October, Sunday

    Time Temperature Precipitation Wind Pressure Humidity
    00:00 +9°C° 0 mm 1 mps 630 mmHg 74%
    01:00 +9°C° 0 mm 1 mps 630 mmHg 74%
    02:00 +9°C° 0 mm 1 mps 629 mmHg 73%
    03:00 +8°C° 0 mm 0 mps 629 mmHg 75%
    04:00 +8°C° 0 mm 1 mps 630 mmHg 75%
    05:00 +8°C° 0 mm 1 mps 630 mmHg 76%
    06:00 +8°C° 0 mm 1 mps 630 mmHg 76%
    07:00 +10°C° 0 mm 1 mps 631 mmHg 70%
    08:00 +11°C° 0 mm 1 mps 632 mmHg 64%
    09:00 +13°C° 0 mm 1 mps 632 mmHg 59%
    10:00 +14°C° 0 mm 2 mps 633 mmHg 58%
    11:00 +14°C° 0 mm 2 mps 633 mmHg 56%
    12:00 +15°C° 0 mm 2 mps 633 mmHg 55%
    13:00 +14°C° 0.1 mm 2 mps 633 mmHg 59%
    14:00 +14°C° 0.1 mm 2 mps 632 mmHg 63%
    15:00 +13°C° 0.1 mm 2 mps 632 mmHg 67%
    16:00 +12°C° 0.1 mm 1 mps 632 mmHg 75%
    17:00 +10°C° 0.1 mm 1 mps 631 mmHg 83%
    18:00 +8°C° 0.1 mm 0 mps 631 mmHg 91%
    19:00 +8°C° 0 mm 0 mps 631 mmHg 90%
    20:00 +7°C° 0 mm 0 mps 631 mmHg 89%
    21:00 +7°C° 0 mm 0 mps 631 mmHg 89%
    22:00 +7°C° 0 mm 0 mps 631 mmHg 88%
    23:00 +7°C° 0 mm 0 mps 631 mmHg 87%

    Tomorrow, 21 October, Monday

    Time Temperature Precipitation Wind Pressure Humidity
    00:00 +7°C° 0 mm 0 mps 631 mmHg 87%
    01:00 +6°C° 0 mm 0 mps 630 mmHg 86%
    02:00 +6°C° 0 mm 0 mps 630 mmHg 84%
    03:00 +7°C° 0 mm 1 mps 630 mmHg 83%
    04:00 +7°C° 0 mm 1 mps 630 mmHg 82%
    05:00 +6°C° 0 mm 0 mps 630 mmHg 81%
    06:00 +6°C° 0 mm 0 mps 630 mmHg 80%
    07:00 +8°C° 0 mm 1 mps 631 mmHg 75%
    08:00 +10°C° 0 mm 1 mps 632 mmHg 69%
    09:00 +12°C° 0 mm 1 mps 633 mmHg 63%
    10:00 +12°C° 0 mm 2 mps 633 mmHg 63%
    11:00 +13°C° 0 mm 2 mps 633 mmHg 63%
    12:00 +14°C° 0 mm 2 mps 633 mmHg 63%
    13:00 +13°C° 0 mm 2 mps 633 mmHg 67%
    14:00 +12°C° 0 mm 2 mps 632 mmHg 72%
    15:00 +12°C° 0 mm 2 mps 632 mmHg 76%
    16:00 +11°C° 0 mm 1 mps 631 mmHg 82%
    17:00 +9°C° 0 mm 1 mps 631 mmHg 88%
    18:00 +7°C° 0 mm 0 mps 631 mmHg 95%
    19:00 +7°C° 0 mm 0 mps 630 mmHg 94%
    20:00 +7°C° 0 mm 0 mps 630 mmHg 93%
    21:00 +6°C° 0 mm 0 mps 630 mmHg 92%
    22:00 +6°C° 0 mm 0 mps 630 mmHg 91%
    23:00 +6°C° 0 mm 0 mps 630 mmHg 90%

    Day after tomorrow, 22 October, Tuesday

    Time Temperature Precipitation Wind Pressure Humidity
    00:00 +6°C° 0 mm 0 mps 630 mmHg 88%
    01:00 +6°C° 0 mm 0 mps 630 mmHg 87%
    02:00 +6°C° 0 mm 0 mps 629 mmHg 85%
    03:00 +5°C° 0 mm 0 mps 629 mmHg 84%
    04:00 +5°C° 0 mm 0 mps 629 mmHg 82%
    05:00 +5°C° 0 mm 0 mps 629 mmHg 81%
    06:00 +5°C° 0 mm 0 mps 629 mmHg 79%
    07:00 +8°C° 0 mm 1 mps 630 mmHg 75%
    08:00 +9°C° 0 mm 1 mps 631 mmHg 71%
    09:00 +11°C° 0 mm 1 mps 631 mmHg 66%
    10:00 +12°C° 0 mm 2 mps 631 mmHg 67%
    11:00 +12°C° 0 mm 2 mps 632 mmHg 67%
    12:00 +13°C° 0 mm 2 mps 632 mmHg 67%
    13:00 +12°C° 0 mm 2 mps 631 mmHg 70%
    14:00 +12°C° 0 mm 2 mps 631 mmHg 74%
    15:00 +10°C° 0 mm 2 mps 630 mmHg 77%
    16:00 +10°C° 0 mm 1 mps 630 mmHg 83%
    17:00 +9°C° 0 mm 1 mps 630 mmHg 88%
    18:00 +7°C° 0 mm 0 mps 630 mmHg 94%
    19:00 +7°C° 0 mm 0 mps 630 mmHg 93%
    20:00 +7°C° 0 mm 0 mps 630 mmHg 93%
    21:00 +7°C° 0 mm 0 mps 629 mmHg 92%
    22:00 +6°C° 0 mm 0 mps 629 mmHg 92%
    23:00 +6°C° 0 mm 0 mps 629 mmHg 92%

    23 October, Wednesday

    Time Temperature Precipitation Wind Pressure Humidity
    00:00 +5°C° 0 mm 0 mps 629 mmHg 91%
    01:00 +5°C° 0 mm 0 mps 629 mmHg 91%
    02:00 +5°C° 0 mm 0 mps 628 mmHg 91%
    03:00 +5°C° 0 mm 0 mps 628 mmHg 90%
    04:00 +5°C° 0 mm 0 mps 628 mmHg 90%
    05:00 +4°C° 0 mm 0 mps 628 mmHg 90%
    06:00 +4°C° 0 mm 0 mps 628 mmHg 90%
    07:00 +7°C° 0 mm 1 mps 629 mmHg 85%
    08:00 +8°C° 0 mm 1 mps 630 mmHg 80%
    09:00 +10°C° 0 mm 1 mps 631 mmHg 75%
    10:00 +10°C° 0 mm 1 mps 631 mmHg 74%
    11:00 +10°C° 0 mm 2 mps 631 mmHg 74%
    12:00 +10°C° 0 mm 2 mps 631 mmHg 73%
    13:00 +10°C° 0 mm 2 mps 630 mmHg 78%
    14:00 +9°C° 0 mm 2 mps 630 mmHg 82%
    15:00 +8°C° 0 mm 2 mps 630 mmHg 86%
    16:00 +9°C° 0 mm 1 mps 629 mmHg 88%
    17:00 +8°C° 0 mm 1 mps 629 mmHg 91%
    18:00 +7°C° 0 mm 0 mps 629 mmHg 93%
    19:00 +6°C° 0 mm 0 mps 629 mmHg 93%
    20:00 +6°C° 0 mm 0 mps 629 mmHg 93%
    21:00 +6°C° 0 mm 0 mps 629 mmHg 92%
    22:00 +5°C° 0 mm 0 mps 629 mmHg 92%
    23:00 +5°C° 0 mm 0 mps 629 mmHg 91%

    24 October, Thursday

    Time Temperature Precipitation Wind Pressure Humidity
    00:00 +5°C° 0 mm 0 mps 629 mmHg 90%
    01:00 +5°C° 0 mm 0 mps 628 mmHg 89%
    02:00 +4°C° 0 mm 0 mps 628 mmHg 88%
    03:00 +4°C° 0 mm 0 mps 628 mmHg 86%
    04:00 +4°C° 0 mm 0 mps 628 mmHg 85%
    05:00 +4°C° 0 mm 0 mps 628 mmHg 84%
    06:00 +5°C° 0 mm 1 mps 628 mmHg 82%
    07:00 +7°C° 0 mm 1 mps 629 mmHg 76%
    08:00 +9°C° 0 mm 1 mps 629 mmHg 69%
    09:00 +10°C° 0 mm 1 mps 630 mmHg 63%
    10:00 +10°C° 0 mm 2 mps 630 mmHg 63%
    11:00 +12°C° 0 mm 2 mps 630 mmHg 62%
    12:00 +13°C° 0 mm 2 mps 630 mmHg 62%
    13:00 +12°C° 0 mm 2 mps 630 mmHg 65%
    14:00 +12°C° 0 mm 2 mps 629 mmHg 69%
    15:00 +10°C° 0 mm 2 mps 629 mmHg 72%
    16:00 +10°C° 0 mm 1 mps 629 mmHg 78%
    17:00 +9°C° 0 mm 1 mps 628 mmHg 84%
    18:00 +7°C° 0 mm 1 mps 628 mmHg 90%
    19:00 +7°C° 0 mm 1 mps 628 mmHg 87%
    20:00 +6°C° 0 mm 0 mps 628 mmHg 85%
    21:00 +6°C° 0 mm 0 mps 628 mmHg 82%
    22:00 +7°C° 0 mm 1 mps 627 mmHg 79%
    23:00 +7°C° 0 mm 1 mps 627 mmHg 77%

    25 October, Friday

    Time Temperature Precipitation Wind Pressure Humidity
    00:00 +7°C° 0 mm 1 mps 627 mmHg 74%
    01:00 +7°C° 0 mm 1 mps 627 mmHg 71%
    02:00 +7°C° 0 mm 1 mps 627 mmHg 67%
    03:00 +7°C° 0 mm 1 mps 627 mmHg 63%
    04:00 +6°C° 0 mm 1 mps 626 mmHg 60%
    05:00 +6°C° 0 mm 1 mps 626 mmHg 57%
    06:00 +6°C° 0 mm 1 mps 626 mmHg 54%
    07:00 +8°C° 0 mm 1 mps 627 mmHg 50%
    08:00 +10°C° 0 mm 1 mps 628 mmHg 46%
    09:00 +12°C° 0 mm 1 mps 629 mmHg 42%
    10:00 +13°C° 0 mm 1 mps 629 mmHg 43%
    11:00 +13°C° 0 mm 2 mps 629 mmHg 45%
    12:00 +14°C° 0 mm 2 mps 629 mmHg 47%
    13:00 +14°C° 0 mm 2 mps 629 mmHg 52%
    14:00 +13°C° 0 mm 2 mps 629 mmHg 56%
    15:00 +13°C° 0 mm 2 mps 628 mmHg 61%
    16:00 +10°C° 0 mm 2 mps 628 mmHg 71%
    17:00 +9°C° 0 mm 2 mps 627 mmHg 80%
    18:00 +8°C° 0 mm 1 mps 627 mmHg 89%
    19:00 +8°C° 0 mm 1 mps 627 mmHg 87%
    20:00 +8°C° 0 mm 1 mps 627 mmHg 85%
    21:00 +8°C° 0 mm 1 mps 627 mmHg 82%
    22:00 +8°C° 0 mm 1 mps 627 mmHg 80%
    23:00 +7°C° 0 mm 1 mps 627 mmHg 78%
    Show more